Voltar ao catálogo

USA 119

AtivoMilitarLEO
NORAD 23893·PAYLOAD·🇺🇸 United States

Lançado May 12, 1996 de Vandenberg Space Force Base

Loading…

Próximas Passagens (próximas 24 horas)

TLE

AtualizadoSource: Space-Track

Época: Sep 14, 2026, 11:05 UTC

1 23893U 96029A   26257.46204430  .00000634  00000-0  11848-3 0  9994
2 23893  63.3188 318.3777 0855678  50.5998 316.7679 13.46500670117298

Acompanhe USA 119 em tempo real com AllMySat

Download on the App Store